RADUGA 1 1 08513U 75123A 22145.62146469 -.00000037 00000-0 00000-0 0 9998 2 08513 6.6029 288.9126 0007596 204.8210 42.2994 1.00250804179931 RADUGA 2 1 9416U 76092A 22145.98796676 -.00000026 00000-0 00000+0 0 9994 2 9416 7.2637 290.8640 0025588 358.3166 17.0409 1.00291238114469 RADUGA 3 1 10159U 77071A 22145.85373687 -.00000370 00000-0 00000+0 0 9999 2 10159 7.8782 293.4132 0008786 225.3226 146.0659 1.00269884162182 RADUGA 4 1 10987U 78073A 22145.60183519 .00000128 00000-0 00000-0 0 9998 2 10987 8.4981 296.8561 0007786 8.5434 196.2855 1.00238554104724 RADUGA 5 1 11343U 79035A 22145.72088532 -.00000195 00000-0 00000-0 0 9991 2 11343 8.9542 299.5599 0007365 157.9561 129.3290 1.00285115114471 RADUGA 6 1 11708U 80016A 22145.82411094 .00000113 00000-0 00000-0 0 9990 2 11708 9.3079 302.5690 0003002 168.1605 113.7855 1.00300116107284 RADUGA 7 1 12003U 80081A 22145.82321052 -.00000272 00000-0 00000-0 0 9992 2 12003 9.4899 304.4849 0008167 255.7139 300.6888 1.00317267108439 RADUGA 8 1 12351U 81027A 22145.74545035 .00000083 00000-0 00000-0 0 9998 2 12351 9.8196 305.0837 0081987 225.6282 28.8930 1.00406827107650 RADUGA 9 1 12618U 81069A 22145.62301590 .00000126 00000-0 00000-0 0 9991 2 12618 10.0324 307.9816 0005475 135.0544 60.9763 1.00296819 32469 RADUGA 10 1 12897U 81102A 22145.57658991 -.00000126 00000-0 00000-0 0 9993 2 12897 10.1170 308.9394 0006354 165.8726 51.7203 1.00296547102463 RADUGA 11 1 13669U 82113A 22145.52123301 -.00000058 00000-0 00000-0 0 9995 2 13669 12.1312 322.4377 0036686 251.5847 102.1002 0.97707931107036 RADUGA 12 1 13974U 83028A 22145.76980993 -.00000029 00000-0 00000-0 0 9992 2 13974 11.2349 318.5753 0004676 108.7635 158.6327 1.00265288154500 RADUGA 13 1 14307U 83088A 22145.72440164 -.00000183 00000-0 00000-0 0 9997 2 14307 12.3735 323.9905 0016548 46.5636 318.6563 0.98175619104387 RADUGA 14 1 14725U 84016A 22145.57430229 -.00000199 00000-0 00000-0 0 9994 2 14725 11.4318 322.2847 0006625 123.4405 86.8620 1.00292817103223 RADUGA 15 1 15057U 84063A 22145.86602198 -.00000348 00000-0 00000-0 0 9999 2 15057 11.5509 323.2720 0006232 139.7984 194.1315 1.00361230126227 RADUGA 16 1 15946U 85070A 22145.72536104 .00000070 00000-0 00000-0 0 9994 2 15946 11.9964 327.9005 0003197 123.9564 242.3449 1.00250750107357 RADUGA 17 1 16250U 85107A 22145.82469323 -.00000263 00000-0 00000-0 0 9998 2 16250 12.1165 329.2650 0014116 172.2447 6.6013 1.00174454136810 RADUGA 18 1 16497U 86007A 22145.84354841 -.00000249 00000-0 00000-0 0 9995 2 16497 12.9166 331.9527 0075324 161.3247 35.1697 0.98815106131205 RADUGA 19 1 17046U 86082A 22145.60324667 -.00000014 00000-0 00000-0 0 9996 2 17046 13.3309 335.8552 0014300 138.1575 42.0749 0.98458994128304 RADUGA 20 1 17611U 87028A 22145.79477740 -.00000166 00000-0 00000+0 0 9993 2 17611 15.3352 339.3843 0031956 131.9015 236.8902 0.95962371124069 RADUGA 21 1 18631U 87100A 22145.72858811 .00000097 00000-0 00000-0 0 9995 2 18631 13.4112 336.7712 0004802 110.2135 264.8127 1.00246107126212 RADUGA 22 1 19596U 88095A 22145.85818499 -.00000333 00000-0 00000-0 0 9996 2 19596 13.3794 341.0154 0008207 121.7778 225.3588 1.00270137106772 RADUGA 23 1 19928U 89030A 22145.69328462 .00000112 00000-0 00000-0 0 9997 2 19928 13.5170 342.8256 0021894 154.2125 24.5495 1.00282514119971 RADUGA 1-1 1 20083U 89048A 22145.66049059 -.00000015 00000-0 00000-0 0 9992 2 20083 14.2611 345.8606 0023724 109.9743 249.6013 0.98708081116625 RADUGA 24 1 20367U 89098A 22145.57311905 -.00000213 00000-0 00000+0 0 9993 2 20367 14.0836 345.1034 0003033 104.2554 86.3989 1.00210960118150 RADUGA 25 1 20499U 90016A 22145.39196264 -.00000301 00000-0 00000-0 0 9999 2 20499 13.8519 345.7413 0006268 120.0990 235.2832 1.00226947118021 RADUGA 26 1 21016U 90112A 22145.60212523 .00000050 00000-0 00000+0 0 9992 2 21016 14.1491 348.9927 0009068 85.0123 79.9314 1.00288228115366 RADUGA 1-2 1 21038U 90116A 22145.88517868 .00000040 00000-0 00000+0 0 9999 2 21038 14.1863 349.0643 0010080 94.3118 175.6097 1.00231858115036 RADUGA 27 1 21132U 91014A 22140.89629447 .00000088 00000-0 00000-0 0 9998 2 21132 14.7023 348.6967 0005886 81.6716 153.1059 1.00239334114383 RADUGA 28 1 21821U 91087A 22145.69221990 -.00000387 00000-0 00000-0 0 9990 2 21821 14.4505 352.3367 0009067 107.8842 148.6584 1.00249759111440 RADUGA 29 1 22557U 93013A 22145.89289187 .00000062 00000-0 00000-0 0 9991 2 22557 14.6335 356.5167 0008489 103.2030 120.3634 1.00304231106804 RADUGA 30 1 22836U 93062A 22145.70506685 -.00000164 00000-0 00000-0 0 9994 2 22836 14.6668 358.4736 0003244 37.1129 181.1864 1.00263569 31124 RADUGA 1-3 1 22981U 94008A 22145.69190625 -.00000334 00000-0 00000-0 0 9996 2 22981 14.7404 359.6289 0005926 83.8635 148.8762 1.00287779103608 RADUGA 31 1 23010U 94012A 22145.69651167 .00000093 00000-0 00000-0 0 9999 2 23010 14.7078 359.6251 0007147 84.5445 94.8068 1.00290069103472 RADUGA 32 1 23448U 94087A 22134.76299314 -.00000148 00000-0 00000-0 0 9996 2 23448 14.6806 2.4159 0003287 178.9193 45.3789 1.00267117117894 RADUGA 1-4 1 25642U 99010A 22144.71194112 .00000111 00000-0 00000-0 0 9990 2 25642 15.1871 13.9617 0001387 358.2720 162.3877 1.00254000 85062 RADUGA 1-5 1 26477U 00049A 22140.69683022 .00000083 00000-0 00000-0 0 9995 2 26477 13.1109 18.7125 0007422 51.5953 108.7207 1.00233543 79495 RADUGA 1-6 1 26936U 01045A 22145.03399215 -.00000164 00000-0 00000-0 0 9994 2 26936 13.2491 24.9591 0014552 154.7240 36.6065 0.97745537 74091 RADUGA 1-7 1 28194U 04010A 22145.56972560 -.00000360 00000-0 00000-0 0 9993 2 28194 11.9443 31.8326 0001644 43.1377 142.0379 1.00289236 66549 RADUGA 1M-1 1 32373U 07058A 22145.81161050 -.00000029 00000-0 00000-0 0 9996 2 32373 6.8465 64.2256 0006099 0.8902 13.2043 0.99393624 37656 RADUGA 1-8 1 34264U 09010A 22145.57234215 -.00000330 00000-0 00000-0 0 9999 2 34264 9.1829 54.2869 0015612 1.0219 175.7644 0.99830918 48364 RADUGA 1M-2 1 36358U 10002A 22145.48918792 -.00000188 00000-0 00000-0 0 9998 2 36358 0.0667 264.6746 0002014 189.6932 49.7578 1.00271911 35219 RADUGA 1M-3 1 39375U 13062A 22145.94133841 .00000153 00000-0 00000-0 0 9995 2 39375 2.1762 90.0599 0004169 130.7951 36.5316 1.00274670 31257